Back to catalog

APEX ARIES 1

AliveSciencePO
NORAD 59129·PAYLOAD·🇺🇸 United States

Launched Mar 4, 2024 from Vandenberg Space Force Base

Loading…

Next Passes (next 24 hours)

TLE

FreshSource: Space-Track

Epoch: Sep 14, 2026, 21:03 UTC

1 59129U 24043AH  26257.87761934  .00027094  00000-0  33798-3 0  9991
2 59129  97.5584  53.4729 0004246 220.4182 139.6759 15.59855894141882

Track APEX ARIES 1 in real time with AllMySat

Download on the App Store